Regional Weather Roundup
Issued by NWS

Home | Current Version | Previous Version | Graphics & Text | Print | Product List | Glossary On
Versions: 1 2 3 4 5 6 7 8 9 10 11 12 13 14 15 16 17 18 19 20 21 22 23 24 25 26 27 28 29 30 31 32 33 34 35 36 37 38 39 40 41 42 43 44 45 46 47 48 49 50
000
ASUS45 KBOI 220810
RWRID
WEATHER ROUNDUP FOR IDAHO
NATIONAL WEATHER SERVICE BOISE ID
200 AM MDT FRI AUG 22 2014

NOTE: "FAIR" INDICATES FEW OR NO CLOUDS BELOW 12000 FEET
WITH NO SIGNIFICANT WEATHER AND/OR OBSTRUCTIONS TO VISIBILITY

IDZ012-014-220900-
SOUTHWEST IDAHO


CITY           SKY/WX    TMP DP  RH WIND       PRES   REMARKS
BOISE          PTCLDY    67  39  35 SE9       29.87F
CALDWELL       PTCLDY    59  41  51 NE6       29.88S
MOUNTAIN HOME  MOCLDY    66  52  61 SE15      29.90S
$$

IDZ016-017-220900-
SOUTHCENTRAL IDAHO


CITY           SKY/WX    TMP DP  RH WIND       PRES   REMARKS
BURLEY         LGT RAIN  59  55  87 VRB7      29.99F
JEROME         MOCLDY    61  53  75 NE13      29.97F
TWIN FALLS     CLOUDY    64  50  60 S8        29.95F
$$

IDZ019>023-220900-
SOUTHEAST IDAHO


CITY           SKY/WX    TMP DP  RH WIND       PRES   REMARKS
IDAHO FALLS    MOCLDY    51  49  92 CALM      30.09F
POCATELLO      PTCLDY    60  52  74 SE6       30.06R
REXBURG        MOCLDY    52  48  86 CALM      30.11S
$$

IDZ006-010-011-018-031-032-220900-
CENTRAL IDAHO MOUNTAINS


CITY           SKY/WX    TMP DP  RH WIND       PRES   REMARKS
MCCALL         CLEAR     46  34  62 NE3       29.99S
HAILEY         PTCLDY    52  50  93 NW5       30.10S
STANLEY          N/A     46  37  71 S5        30.09S
SALMON         CLOUDY    55  50  82 N5        30.02R
CHALLIS        PTCLDY    56  47  71 NW6       30.03S
$$

IDZ002-004-006-007-026-220900-
NORTHERN IDAHO


CITY           SKY/WX    TMP DP  RH WIND       PRES   REMARKS
LEWISTON       CLOUDY    71  44  37 S5        29.86S
LOWELL           N/A     62  54  74 CALM      29.89S
COEUR D`ALENE  MOCLDY    57  52  82 N16       29.94F
MULLAN PASS    CLOUDY    48  45  89 SE6       30.08S
$$



USA.gov is the U.S. government's official web portal to all federal, state and local government web resources and services.